This is the latest recevied weather packets stored in our database for station/object VE8SKI. If no packets are shown the sender has not sent any weather packets the latest 10 day(s).
| Time | Temp. | Humidity | Pressure | Rain* | Wind** | Luminosity | Snow |
|---|---|---|---|---|---|---|---|
| 1777479355 | 5° C | 60% | 1017.5 hPa | 0 mm | 2.24 m/s, 194° | - | - |
| 1777479056 | 4.44° C | 60% | 1017.5 hPa | 0 mm | 2.68 m/s, 233° | - | - |
| 1777478756 | 4.44° C | 62% | 1017.6 hPa | 0 mm | 2.24 m/s, 184° | - | - |
| 1777478456 | 4.44° C | 62% | 1017.7 hPa | 0 mm | 1.79 m/s, 224° | - | - |
| 1777478157 | 5° C | 61% | 1017.7 hPa | 0 mm | 1.79 m/s, 204° | - | - |
| 1777477855 | 5° C | 61% | 1017.9 hPa | 0 mm | 1.79 m/s, 193° | - | - |
| 1777477555 | 5° C | 60% | 1018.1 hPa | 0 mm | 2.68 m/s, 208° | - | - |
| 1777477255 | 5° C | 59% | 1018.2 hPa | 0 mm | 1.34 m/s, 173° | - | - |
| 1777476956 | 5° C | 60% | 1018.3 hPa | 0 mm | 2.24 m/s, 238° | - | - |
| 1777476656 | 4.44° C | 60% | 1018.6 hPa | 0 mm | 0.89 m/s, 174° | - | - |
| 1777476357 | 5° C | 60% | 1018.7 hPa | 0 mm | 1.34 m/s, 150° | - | - |
| 1777476054 | 4.44° C | 60% | 1018.8 hPa | 0 mm | 1.34 m/s, 167° | - | - |
| 1777475755 | 3.89° C | 61% | 1018.9 hPa | 0 mm | 1.34 m/s, 121° | - | - |
| 1777475455 | 3.89° C | 62% | 1019.1 hPa | 0 mm | 1.34 m/s, 176° | - | - |
| 1777475156 | 3.33° C | 63% | 1019.2 hPa | 0 mm | 1.79 m/s, 143° | - | - |
| 1777474856 | 3.33° C | 65% | 1019.3 hPa | 0 mm | 0.89 m/s, 158° | - | - |
| 1777474556 | 2.78° C | 65% | 1019.6 hPa | 0 mm | 1.34 m/s, 204° | - | - |
| 1777474254 | 2.78° C | 64% | 1019.6 hPa | 0 mm | 1.34 m/s, 170° | - | - |
| 1777473954 | 2.78° C | 63% | 1019.9 hPa | 0 mm | 1.34 m/s, 139° | - | - |
| 1777473655 | 2.78° C | 64% | 1020.1 hPa | 0 mm | 1.34 m/s, 173° | - | - |
| 1777473355 | 2.22° C | 65% | 1020.4 hPa | 0 mm | 0.89 m/s, 210° | - | - |
| 1777473055 | 2.22° C | 65% | 1020.5 hPa | 0 mm | 1.34 m/s, 162° | - | - |
| 1777472755 | 1.67° C | 66% | 1020.7 hPa | 0 mm | 1.34 m/s, 162° | - | - |
| 1777472453 | 1.67° C | 68% | 1020.9 hPa | 0 mm | 0.45 m/s, 212° | - | - |
| 1777472153 | 1.67° C | 67% | 1021 hPa | 0 mm | 1.79 m/s, 141° | - | - |
* Rain latest hour (hover to see other rain measurements)
** Current wind speed in m/s (hover to see current wind gust speed)